Home > Weather > Achern > Past weeks

Flag for Germany Weather for the Past 2 Weeks in Achern, Baden-Württemberg, Germany

Now
41 °F

Scattered showers. Broken clouds.


Feels Like: 33 °F
Forecast: 37 / 41 °F
Wind: 14 mph from Southwest

Location: Karlsruhe - Baden Wurttemberg

Current Time: Feb 10, 2016 at 4:51:09 PM

Latest Report: Feb 10, 2016 at 4:20 PM


Visibility: N/A

Pressure: 29.53 "Hg

Humidity: 70%

Dew point: 32 °F

Location of AchernLocation

Historic Weather in Achern — Graph

°F

Achern Temperature Yesterday

Maximum temperature yesterday: 55 °F (at 12:50 PM)
Minimum temperature yesterday: 37 °F (at 10:20 PM)
Average temperature yesterday: 47 °F

High & Low Weather Summary for the Past Weeks

 TemperatureHumidityPressure
High59 °F (Jan 26, 3:20 PM)100% (Jan 28, 5:50 PM)30.48 "Hg (Jan 28, 5:50 PM)
Low30 °F (Feb 6, 5:50 AM)39% (Feb 6, 3:50 PM)29.12 "Hg (Feb 9, 3:50 PM)
Average47 °F77%30.04 "Hg
* Reported Jan 26 3:20 PM — Feb 10 3:50 PM, Achern, Weather by CustomWeather, © 2016

Note: Actual official high and low records may vary slightly from our data, if they occured in-between our weather recording intervals... More about our weather records

Advertising

Achern Weather History for the Previous 24 Hours

 ConditionsComfort  
Time TempWeatherWind HumidityBarometerVisibility
3:50 PM
Wed, Feb 10
41 °FBroken clouds.14 mph76%29.53 "HgN/A
3:20 PM39 °FLight rain. Partly sunny.15 mph87%29.53 "Hg6 mi
2:50 PM39 °FRain. Broken clouds.17 mph87%29.53 "Hg5 mi
2:20 PM37 °FLight rain. Broken clouds.20 mph93%29.53 "Hg5 mi
1:50 PM37 °FRain. Fog.18 mph93%29.53 "Hg3 mi
1:20 PM37 °FRain showers. Broken clouds.20 mph93%29.53 "Hg3 mi
12:59 PM37 °FRain showers. Fog.21 mph93%29.53 "Hg3 mi
12:50 PM37 °FSprinkles. Broken clouds.18 mph93%29.53 "Hg5 mi
12:20 PM39 °FSprinkles. Partly sunny.21 mph81%29.53 "Hg4 mi
11:50 AM39 °FScattered showers. Broken clouds.21 mph81%29.50 "Hg6 mi
11:20 AM39 °FLight rain. Broken clouds.18 mph81%29.50 "HgN/A
10:50 AM37 °FLight rain. Broken clouds.16 mph93%29.50 "Hg6 mi
10:20 AM39 °FLight rain. Partly sunny.17 mph81%29.50 "Hg4 mi
9:50 AM39 °FPartly sunny.18 mph81%29.47 "HgN/A
9:20 AM39 °FPartly sunny.18 mph81%29.50 "HgN/A
8:50 AM37 °FBroken clouds.17 mph93%29.50 "HgN/A
8:20 AM37 °FBroken clouds.17 mph87%29.47 "HgN/A
7:50 AM37 °FBroken clouds.15 mph93%29.47 "HgN/A
7:20 AM37 °FPassing clouds.10 mph93%29.47 "HgN/A
6:50 AM37 °FPassing clouds.9 mph87%29.47 "HgN/A
6:20 AM37 °FPassing clouds.8 mph87%29.47 "HgN/A
5:50 AM37 °FPassing clouds.5 mph87%29.47 "HgN/A
5:20 AM37 °FSprinkles. Partly cloudy.7 mph87%29.45 "HgN/A
4:50 AM37 °FLight rain. Passing clouds.9 mph87%29.45 "HgN/A
12:20 AM37 °FSprinkles. Partly cloudy.10 mph93%29.39 "Hg4 mi
11:50 PM
Tue, Feb 9
37 °FSprinkles. Partly cloudy.8 mph93%29.39 "Hg5 mi
11:20 PM37 °FSprinkles. Partly cloudy.12 mph93%29.39 "Hg5 mi
10:20 PM37 °FRain showers. Partly cloudy.13 mph87%29.36 "Hg4 mi
9:52 PM41 °FRain showers. Partly cloudy.15 mph81%29.36 "Hg4 mi
9:20 PM41 °FPartly cloudy.13 mph81%29.33 "HgN/A
8:50 PM41 °FScattered showers. Partly cloudy.13 mph87%29.33 "HgN/A
8:20 PM41 °FRain showers. Passing clouds.17 mph81%29.30 "Hg3 mi
8:00 PM43 °FThundershowers. Partly cloudy.18 mph81%29.30 "Hg3 mi
7:50 PM43 °FRain showers. Passing clouds.18 mph81%29.27 "Hg4 mi
7:20 PM48 °FRain showers. Partly cloudy.25 mph71%29.21 "Hg5 mi
6:50 PM48 °FScattered showers. Passing clouds.17 mph71%29.21 "HgN/A
6:20 PM48 °FScattered showers. Passing clouds.20 mph71%29.18 "HgN/A
5:50 PM46 °FThundershowers. Partly cloudy.24 mph82%29.15 "Hg4 mi
5:20 PM54 °FRain showers. Broken clouds.25 mph67%29.15 "Hg2 mi
4:20 PM55 °FScattered showers. Partly sunny.31 mph59%29.12 "HgN/A
Weather by CustomWeather, © 2016

See weather overviewHow to use our weather pages